This is the latest recevied weather packets stored in our database for station/object KC3QLX. If no packets are shown the sender has not sent any weather packets the latest 10 day(s).
| Time | Temp. | Humidity | Pressure | Rain* | Wind** | Luminosity | Snow |
|---|---|---|---|---|---|---|---|
| 1777475233 | 13.33° C | 73% | 1014.3 hPa | 0 mm | - | 114 W/m² | - |
| 1777474928 | 12.78° C | 74% | 1014.3 hPa | 0 mm | - | 105 W/m² | - |
| 1777474624 | 12.78° C | 75% | 1014.2 hPa | 0 mm | - | 122 W/m² | - |
| 1777474321 | 12.78° C | 75% | 1014.2 hPa | 0 mm | - | 106 W/m² | - |
| 1777474017 | 12.78° C | 75% | 1014.4 hPa | 0 mm | - | 98 W/m² | - |
| 1777473715 | 12.78° C | 75% | 1014.5 hPa | 0 mm | - | 88 W/m² | - |
| 1777473411 | 12.78° C | 74% | 1014.4 hPa | 0 mm | - | 113 W/m² | - |
| 1777473107 | 12.78° C | 74% | 1014.3 hPa | 0 mm | - | 88 W/m² | - |
| 1777472804 | 12.22° C | 75% | 1014.4 hPa | 0 mm | - | 90 W/m² | - |
| 1777472500 | 12.22° C | 75% | 1013.9 hPa | 0 mm | - | 106 W/m² | - |
| 1777472198 | 12.78° C | 75% | 1014.1 hPa | 0 mm | - | 131 W/m² | - |
| 1777471893 | 12.22° C | 77% | 1014 hPa | 0 mm | - | 133 W/m² | - |
| 1777471590 | 12.22° C | 76% | 1014.3 hPa | 0 mm | - | 127 W/m² | - |
| 1777471287 | 12.78° C | 77% | 1014.3 hPa | 0 mm | - | 81 W/m² | - |
| 1777470983 | 12.22° C | 77% | 1014.4 hPa | 0 mm | - | 93 W/m² | - |
| 1777470680 | 12.22° C | 76% | 1014.4 hPa | 0 mm | - | 89 W/m² | - |
| 1777470376 | 12.22° C | 76% | 1014.4 hPa | 0 mm | - | 75 W/m² | - |
| 1777470073 | 11.67° C | 76% | 1014.6 hPa | 0 mm | - | 64 W/m² | - |
| 1777469769 | 11.67° C | 76% | 1014.4 hPa | 0 mm | - | 83 W/m² | - |
| 1777469465 | 11.67° C | 76% | 1014.4 hPa | 0 mm | - | 96 W/m² | - |
| 1777469165 | 11.67° C | 77% | 1014.3 hPa | 0 mm | - | 85 W/m² | - |
| 1777468859 | 11.67° C | 77% | 1014.4 hPa | 0 mm | - | 94 W/m² | - |
| 1777468556 | 11.67° C | 76% | 1014.5 hPa | 0 mm | - | 80 W/m² | - |
| 1777468253 | 11.67° C | 78% | 1014.3 hPa | 0 mm | - | 74 W/m² | - |
| 1777467950 | 11.67° C | 76% | 1014.7 hPa | 0 mm | - | 101 W/m² | - |
* Rain latest hour (hover to see other rain measurements)
** Current wind speed in m/s (hover to see current wind gust speed)